Location: Newark
(33.6333°S, 78.8500°W)
Time: 08:32:41
(UTC+00:00)

Courier 1B - Pass Details

Date: 29 September 2019
Orbit: 962 x 1209 km, 28.3° (Epoch: 18 October)

Event Time Altitude Azimuth Distance (km) Brightness Sun altitude
Rises 17:09:59 0° 330° (NNW) 4,007 11.1 58.8°
Reaches altitude 10° 17:13:40 10° 346° (NNW) 3,084 10.8 58.8°
Maximum altitude 17:18:50 20° 29° (NNE) 2,481 10.4 58.7°
Drops below altitude 10° 17:24:05 10° 71° (ENE) 3,148 10.4 58.6°
Sets 17:27:53 0° 87° (E) 4,117 10.7 58.4°
